{"data":{"norad_id":48981,"epoch":"2026-09-20T03:26:21.239232Z","epoch_age_seconds":56593,"freshness":"FRESH","line1":"1 48981U 21060Q   26263.14330138 -.00000013  00000+0 -66464-4 0  9996","line2":"2 48981  87.9142 209.9288 0001992  67.3765 292.7576 13.16592917252085","mean_motion":13.16592917,"eccentricity":0.0001992,"inclination_deg":87.9142,"raan_deg":209.9288,"arg_perigee_deg":67.3765,"mean_anomaly_deg":292.7576,"bstar":-6.6464e-5,"rev_number":25208,"period_min":109.37321486441,"perigee_km":1196.2526884385,"apogee_km":1199.2709265234,"semimajor_km":7575.8988074809,"source":"CELESTRAK","updated_at":"2026-09-20T09:00:44.625780Z"}}